Location: St. Louis
(38.6270°N, 90.1994°W)
Time: 07:21:30
(UTC-06:00)

deb Explorer IX - Pass Details

Date: 02 December 2021
Orbit: 544 x 1082 km, 38.8° (Epoch: 19 January)

Event Time Altitude Azimuth Distance (km) Brightness Sun altitude
Rises 11:38:39 0° 254° (WSW) 2,911 ? 29.2°
Reaches altitude 10° 11:41:05 10° 253° (WSW) 1,939 ? 29.3°
Maximum altitude 11:45:28 76° 169° (S) 583 ? 29.3°
Drops below altitude 10° 11:49:33 10° 83° (E) 1,809 ? 29.3°
Sets 11:51:45 0° 82° (E) 2,696 ? 29.3°
